Hourly Weather Kisnytsya

Today, 21 April, Wednesday

Time Temperature Precipitation Wind Pressure Humidity
00:00 +6°C° 0 mm 2 mps 737 mmHg 82%
01:00 +5°C° 0 mm 2 mps 737 mmHg 83%
02:00 +5°C° 0 mm 2 mps 737 mmHg 84%
03:00 +5°C° 0 mm 2 mps 737 mmHg 85%
04:00 +5°C° 0 mm 2 mps 737 mmHg 87%
05:00 +5°C° 0 mm 2 mps 737 mmHg 88%
06:00 +6°C° 0 mm 2 mps 738 mmHg 83%
07:00 +7°C° 0 mm 3 mps 738 mmHg 78%
08:00 +9°C° 0 mm 3 mps 739 mmHg 74%
09:00 +10°C° 0.3 mm 3 mps 739 mmHg 68%
10:00 +11°C° 0.3 mm 4 mps 739 mmHg 63%
11:00 +12°C° 0.3 mm 4 mps 739 mmHg 57%
12:00 +13°C° 0.2 mm 4 mps 739 mmHg 54%
13:00 +13°C° 0.2 mm 3 mps 739 mmHg 50%
14:00 +14°C° 0.2 mm 3 mps 739 mmHg 47%
15:00 +15°C° 0 mm 2 mps 739 mmHg 48%
16:00 +15°C° 0 mm 2 mps 739 mmHg 49%
17:00 +14°C° 0 mm 1 mps 739 mmHg 51%
18:00 +13°C° 0 mm 1 mps 740 mmHg 55%
19:00 +12°C° 0 mm 2 mps 740 mmHg 60%
20:00 +10°C° 0 mm 2 mps 740 mmHg 64%
21:00 +9°C° 0 mm 2 mps 740 mmHg 66%
22:00 +9°C° 0 mm 2 mps 740 mmHg 69%
23:00 +8°C° 0 mm 3 mps 741 mmHg 71%

Tomorrow, 22 April, Thursday

Time Temperature Precipitation Wind Pressure Humidity
00:00 +8°C° 0 mm 2 mps 741 mmHg 71%
01:00 +7°C° 0 mm 2 mps 741 mmHg 71%
02:00 +7°C° 0 mm 2 mps 741 mmHg 71%
03:00 +7°C° 0 mm 2 mps 741 mmHg 73%
04:00 +7°C° 0 mm 2 mps 741 mmHg 74%
05:00 +6°C° 0 mm 2 mps 741 mmHg 75%
06:00 +8°C° 0 mm 2 mps 741 mmHg 72%
07:00 +10°C° 0 mm 3 mps 741 mmHg 68%
08:00 +11°C° 0 mm 3 mps 742 mmHg 64%
09:00 +12°C° 0 mm 3 mps 742 mmHg 59%
10:00 +14°C° 0 mm 3 mps 742 mmHg 54%
11:00 +15°C° 0 mm 4 mps 742 mmHg 49%
12:00 +17°C° 0 mm 4 mps 742 mmHg 47%
13:00 +18°C° 0 mm 4 mps 741 mmHg 44%
14:00 +17°C° 0 mm 5 mps 741 mmHg 41%
15:00 +18°C° 0 mm 4 mps 741 mmHg 44%
16:00 +17°C° 0 mm 4 mps 741 mmHg 47%
17:00 +17°C° 0 mm 3 mps 740 mmHg 50%
18:00 +14°C° 0 mm 3 mps 740 mmHg 54%
19:00 +13°C° 0 mm 3 mps 740 mmHg 58%
20:00 +12°C° 0 mm 3 mps 740 mmHg 61%
21:00 +12°C° 0.5 mm 2 mps 740 mmHg 68%
22:00 +10°C° 0.5 mm 2 mps 740 mmHg 75%
23:00 +10°C° 0.5 mm 1 mps 740 mmHg 82%

Day after tomorrow, 23 April, Friday

Time Temperature Precipitation Wind Pressure Humidity
00:00 +9°C° 0.2 mm 2 mps 740 mmHg 83%
01:00 +9°C° 0.2 mm 2 mps 740 mmHg 85%
02:00 +8°C° 0.2 mm 2 mps 740 mmHg 87%
03:00 +8°C° 0 mm 3 mps 740 mmHg 89%
04:00 +6°C° 0 mm 4 mps 740 mmHg 91%
05:00 +5°C° 0 mm 4 mps 741 mmHg 93%
06:00 +6°C° 0 mm 4 mps 741 mmHg 89%
07:00 +6°C° 0 mm 4 mps 741 mmHg 84%
08:00 +6°C° 0 mm 4 mps 741 mmHg 80%
09:00 +6°C° 0.1 mm 4 mps 741 mmHg 82%
10:00 +5°C° 0.1 mm 4 mps 742 mmHg 85%
11:00 +5°C° 0.1 mm 5 mps 742 mmHg 87%
12:00 +4°C° 1.2 mm 4 mps 742 mmHg 89%
13:00 +3°C° 1.2 mm 4 mps 742 mmHg 91%
14:00 +3°C° 1.2 mm 4 mps 742 mmHg 93%
15:00 +4°C° 0.1 mm 4 mps 742 mmHg 84%
16:00 +7°C° 0.1 mm 3 mps 742 mmHg 75%
17:00 +8°C° 0.1 mm 3 mps 741 mmHg 66%
18:00 +7°C° 0 mm 3 mps 741 mmHg 70%
19:00 +5°C° 0 mm 3 mps 742 mmHg 74%
20:00 +5°C° 0 mm 2 mps 742 mmHg 78%
21:00 +4°C° 0 mm 2 mps 742 mmHg 78%
22:00 +4°C° 0 mm 2 mps 742 mmHg 79%
23:00 +3°C° 0 mm 2 mps 742 mmHg 79%

24 April, Saturday

Time Temperature Precipitation Wind Pressure Humidity
00:00 +2°C° 0 mm 3 mps 742 mmHg 81%
01:00 +1°C° 0 mm 3 mps 742 mmHg 83%
02:00 +1°C° 0 mm 3 mps 742 mmHg 84%
03:00 0°C° 0 mm 4 mps 742 mmHg 85%
04:00 +1°C° 0 mm 5 mps 742 mmHg 86%
05:00 +1°C° 0 mm 5 mps 742 mmHg 87%
06:00 +1°C° 0 mm 6 mps 743 mmHg 81%
07:00 +2°C° 0 mm 6 mps 743 mmHg 74%
08:00 +2°C° 0 mm 7 mps 743 mmHg 68%
09:00 +3°C° 0 mm 7 mps 743 mmHg 64%
10:00 +3°C° 0 mm 7 mps 744 mmHg 60%
11:00 +4°C° 0 mm 8 mps 744 mmHg 56%
12:00 +5°C° 0.1 mm 8 mps 744 mmHg 50%
13:00 +6°C° 0.1 mm 8 mps 743 mmHg 44%
14:00 +6°C° 0.1 mm 8 mps 743 mmHg 38%
15:00 +6°C° 0 mm 7 mps 743 mmHg 41%
16:00 +6°C° 0 mm 7 mps 744 mmHg 44%
17:00 +7°C° 0 mm 6 mps 744 mmHg 47%
18:00 +5°C° 0 mm 5 mps 744 mmHg 52%
19:00 +4°C° 0 mm 4 mps 744 mmHg 57%
20:00 +3°C° 0 mm 3 mps 744 mmHg 63%
21:00 +2°C° 0 mm 3 mps 744 mmHg 66%
22:00 +2°C° 0 mm 3 mps 744 mmHg 69%
23:00 +1°C° 0 mm 3 mps 744 mmHg 72%

25 April, Sunday

Time Temperature Precipitation Wind Pressure Humidity
00:00 +1°C° 0 mm 3 mps 744 mmHg 73%
01:00 +1°C° 0 mm 3 mps 744 mmHg 75%
02:00 0°C° 0 mm 3 mps 744 mmHg 76%
03:00 +1°C° 0 mm 2 mps 744 mmHg 76%
04:00 -1°C° 0 mm 2 mps 744 mmHg 77%
05:00 -1°C° 0 mm 2 mps 744 mmHg 78%
06:00 +2°C° 0 mm 2 mps 744 mmHg 71%
07:00 +2°C° 0 mm 3 mps 744 mmHg 65%
08:00 +4°C° 0 mm 3 mps 744 mmHg 58%
09:00 +4°C° 0 mm 3 mps 744 mmHg 59%
10:00 +5°C° 0 mm 3 mps 744 mmHg 59%
11:00 +5°C° 0 mm 4 mps 744 mmHg 59%
12:00 +5°C° 0.1 mm 4 mps 744 mmHg 61%
13:00 +6°C° 0.1 mm 4 mps 744 mmHg 62%
14:00 +6°C° 0.1 mm 4 mps 744 mmHg 64%
15:00 +6°C° 0.1 mm 4 mps 743 mmHg 58%
16:00 +7°C° 0.1 mm 5 mps 743 mmHg 52%
17:00 +7°C° 0.1 mm 5 mps 743 mmHg 47%
18:00 +6°C° 0 mm 4 mps 743 mmHg 52%
19:00 +4°C° 0 mm 3 mps 743 mmHg 58%
20:00 +3°C° 0 mm 3 mps 744 mmHg 64%
21:00 +2°C° 0 mm 3 mps 744 mmHg 65%
22:00 +3°C° 0 mm 2 mps 744 mmHg 67%
23:00 +3°C° 0 mm 2 mps 744 mmHg 69%

26 April, Monday

Time Temperature Precipitation Wind Pressure Humidity
00:00 +2°C° 0 mm 2 mps 744 mmHg 71%
01:00 +2°C° 0 mm 2 mps 743 mmHg 73%
02:00 +1°C° 0 mm 2 mps 743 mmHg 75%
03:00 0°C° 0 mm 3 mps 743 mmHg 77%
04:00 -1°C° 0 mm 3 mps 743 mmHg 80%
05:00 -1°C° 0 mm 3 mps 743 mmHg 83%
06:00 0°C° 0 mm 4 mps 743 mmHg 78%
07:00 +1°C° 0 mm 5 mps 743 mmHg 73%
08:00 +2°C° 0 mm 6 mps 744 mmHg 69%
09:00 +3°C° 0 mm 6 mps 744 mmHg 60%
10:00 +4°C° 0 mm 6 mps 744 mmHg 52%
11:00 +5°C° 0 mm 7 mps 744 mmHg 44%
12:00 +6°C° 0 mm 7 mps 744 mmHg 42%
13:00 +6°C° 0 mm 7 mps 744 mmHg 41%
14:00 +8°C° 0 mm 7 mps 743 mmHg 39%
15:00 +6°C° 0 mm 7 mps 743 mmHg 42%
16:00 +7°C° 0 mm 6 mps 743 mmHg 44%
17:00 +7°C° 0 mm 6 mps 744 mmHg 47%
18:00 +6°C° 0 mm 4 mps 744 mmHg 52%
19:00 +5°C° 0 mm 3 mps 744 mmHg 57%
20:00 +4°C° 0 mm 2 mps 744 mmHg 62%
21:00 +5°C° 0 mm 1 mps 744 mmHg 63%
22:00 +5°C° 0 mm 1 mps 744 mmHg 64%
23:00 +4°C° 0 mm 1 mps 744 mmHg 64%
Show more

We Need Your Consent

Meteoprog and our Service Providers may store and access personal data such as cookies, device identifiers or other similar technologies on your device and process such data to personalise content and ads, as well as provide social media features and to analyse the traffic.

  • Store and/or access information on your device

    Cookies, device identifiers or other information can be stored or accessed on your device for the purposes indicated above.

  • Personalised ads and content, ad and content measurement, audience insights, and products development

    Ads and content can be personalised based on a profile. More data can be added to better personalise ads and content. Ad and content performance can be measured. Insights about the audience who saw the ads and content can be derived. Such data can be used to develop or improve user’s experience, systems and software.

By clicking ‘I Agree’ you will allow the use of indicated cookies, device identifiers, web beacons or other similar technologies. Your settings can be changed in the browser on your device.

For certain purposes, legitimate interests may be relied on, rather than consent. You can read more about this in our Privacy and Cookie Policy.